Flag for France Weather past 2 weeks in Orléans, France

Now
50 °F

Light rain. Passing clouds.


Feels Like: 44 °F
Forecast: 51 / 57 °F
Wind: 16 mph from Southwest

Location: Orleans Airport

Current Time: Mar 29, 2015 at 7:10:35 AM

Latest Report: Mar 29, 2015 at 6:30 AM


Visibility: N/A

Pressure: 30.01 "Hg

Humidity: 88%

Dew point: 46 °F

Location of OrléansLocation

Historic Weather in Orléans — Graph

°F

Orléans temperature yesterday

Maximum temperature yesterday: 59 °F (at 4:00 PM)
Minimum temperature yesterday: 45 °F (at 12:00 AM)
Average temperature yesterday: 51 °F

Past Weeks' High & Low Weather Summary

 TemperatureHumidityPressure
High63 °F (Mar 17, 2:30 PM)100% (Mar 17, 7:00 AM)30.36 "Hg (Mar 17, 7:00 AM)
Low30 °F (Mar 17, 7:00 AM)37% (Mar 17, 5:00 PM)29.74 "Hg (Mar 24, 3:00 PM)
Average45 °F77%30.09 "Hg
* Reported Mar 14 5:00 AM — Mar 29 6:00 AM, Orléans, Weather by CustomWeather, © 2015

Note: Actual official high and low records may vary slightly from our data, if they occured in-between our weather recording intervals... More about our weather records

Advertising

Orléans weather history for previous 24 hours

 ConditionsComfort  
Time TempWeatherWind HumidityBarometerVisibility
6:00 AM
Sun, Mar 29
50 °FLight rain. Mostly cloudy.17 mph88%30.01 "HgN/A
5:30 AM50 °FMostly cloudy.17 mph88%30.01 "HgN/A
5:00 AM50 °FMostly cloudy.18 mph88%30.01 "HgN/A
4:30 AM50 °FPassing clouds.17 mph88%30.01 "HgN/A
4:00 AM50 °FPassing clouds.17 mph88%30.01 "HgN/A
3:30 AM50 °FPassing clouds.17 mph88%30.04 "HgN/A
3:00 AM50 °FPassing clouds.16 mph94%30.04 "HgN/A
1:30 AM52 °FOvercast.17 mph88%30.04 "HgN/A
1:00 AM52 °FOvercast.16 mph88%30.04 "HgN/A
12:30 AM52 °FOvercast.17 mph94%30.04 "HgN/A
12:00 AM52 °FLight rain. Partly cloudy.18 mph94%30.07 "Hg4 mi
11:30 PM
Sat, Mar 28
52 °FLight rain. Fog.17 mph94%30.04 "Hg1 mi
11:00 PM52 °FLow clouds.20 mph94%30.07 "HgN/A
10:30 PM52 °FDrizzle. Fog.21 mph94%30.04 "Hg3 mi
10:00 PM52 °FFog.18 mph88%30.07 "Hg2 mi
9:30 PM52 °FMostly cloudy.22 mph88%30.07 "Hg5 mi
9:00 PM54 °FMostly cloudy.17 mph77%30.04 "HgN/A
8:30 PM54 °FMostly cloudy.18 mph77%30.07 "HgN/A
8:00 PM54 °FMostly cloudy.20 mph82%30.07 "HgN/A
7:30 PM54 °FMostly cloudy.17 mph77%30.07 "HgN/A
7:00 PM54 °FScattered clouds.16 mph77%30.07 "HgN/A
6:30 PM55 °FOvercast.20 mph77%30.09 "HgN/A
6:00 PM57 °FOvercast.24 mph72%30.09 "HgN/A
5:30 PM57 °FScattered clouds.26 mph67%30.09 "HgN/A
5:00 PM59 °FPartly sunny.23 mph68%30.07 "HgN/A
4:30 PM59 °FPartly sunny.20 mph72%30.09 "HgN/A
4:00 PM59 °FPartly sunny.18 mph72%30.09 "HgN/A
3:30 PM57 °FBroken clouds.17 mph82%30.09 "HgN/A
3:00 PM57 °FMostly cloudy.20 mph82%30.12 "HgN/A
2:30 PM55 °FOvercast.22 mph88%30.12 "HgN/A
2:00 PM55 °FOvercast.20 mph88%30.12 "HgN/A
1:30 PM55 °FOvercast.21 mph88%30.12 "HgN/A
1:00 PM55 °FOvercast.17 mph88%30.15 "HgN/A
12:30 PM55 °FMostly cloudy.14 mph88%30.15 "HgN/A
12:00 PM54 °FLow clouds.14 mph94%30.15 "HgN/A
11:30 AM54 °FLow clouds.17 mph94%30.15 "HgN/A
11:00 AM54 °FLow clouds.16 mph94%30.15 "HgN/A
10:30 AM52 °FLow clouds.15 mph100%30.15 "HgN/A
10:00 AM50 °FFog.12 mph100%30.15 "Hg1 mi
9:30 AM50 °FFog.12 mph94%30.15 "Hg1 mi
9:00 AM48 °FFog.9 mph100%30.15 "Hg1 mi
8:30 AM48 °FFog.8 mph94%30.18 "Hg2 mi
8:00 AM48 °FFog.9 mph94%30.18 "Hg1 mi
7:30 AM46 °FFog.8 mph100%30.18 "Hg1 mi
7:00 AM46 °FFog.9 mph93%30.18 "Hg2 mi
Weather by CustomWeather, © 2015

See weather overviewHow to use our weather pages